sat.trackr.live / text

‹ back to catalog

STARLINK-30366

NORAD 57749 · 2023-131T

PAYLOAD ACTIVE UNKNOWN

§ Identity

Operator
Country
US
Launch date
2023-09-01
Launch site
AFETR
Launch vehicle
Mass (kg)
RCS (m²)

Purposes: comms

External: N2YO · Heavens-Above · Gunter

§ Orbital elements

Epoch: 2026-09-20T23:15:04.090176Z

Period
94.27 min
Inclination
42.9992°
Eccentricity
0.0001401
Mean motion
15.27575281 rev/d
Perigee alt
482.1 km
Apogee alt
484.0 km
Semi-major
6,861.2 km
B*
5.3151e-5
RAAN
153.7361°
Arg perigee
272.1854°
Mean anomaly
87.8837°
Rev number
16,973

§ Raw data

STARLINK-303661 57749U 23131T   26263.96879734  .00001201  00000+0  53151-4 0  99962 57749  42.9992 153.7361 0001401 272.1854  87.8837 15.27575281169730

JSON: /api/v1/satellites/57749 · /tle

For live sub-satellite position, see the globe view (requires WebGL).

§ Visibility from observer

Set your observer location to see the next 7 days of passes ≥ 10°. The values pass through the URL so the page stays shareable.

No JS? Fill the form by hand. The geolocation button needs JavaScript.